EW1773 Weather Reports


time (UTC)temp
C
wind
direction
speed
KPH
gust
KPH
rain 1hr
cm
rain 24hr
cm
rain mn
cm
humidity
%
barometer
mb
20260504002656 25 54 6.4 9.7 0.00 0.00 0.00 38 1009.6
20260504002157 25 54 6.4 8.0 0.00 0.00 0.00 40 1009.6
20260504001656 25 56 6.4 9.7 0.00 0.00 0.00 36 1009.6
20260504001157 25 52 6.4 9.7 0.00 0.00 0.00 39 1009.6
20260504000927 25 56 6.4 8.0 0.00 0.00 0.00 39 1009.7
20260504000156 25 54 6.4 8.0 0.00 0.00 0.00 39 1009.7
20260503235657 25 55 6.4 8.0 0.00 0.00 0.00 39 1009.8
20260503235157 25 33 4.8 8.0 0.00 0.00 0.00 40 1009.8
20260503234917 25 39 6.4 9.7 0.00 0.00 0.00 39 1009.8
20260503234157 25 37 6.4 11.3 0.00 0.00 0.00 39 1009.8
20260503233656 25 32 6.4 11.3 0.00 0.00 0.00 39 1009.9
20260503233157 25 35 6.4 11.3 0.00 0.00 0.00 40 1010.0
20260503232657 25 41 8.0 11.3 0.00 0.00 0.00 40 1010.1
20260503232155 25 39 6.4 11.3 0.00 0.00 0.00 41 1010.2
20260503231654 25 43 6.4 11.3 0.00 0.00 0.00 43 1010.2
20260503231155 25 38 6.4 11.3 0.00 0.00 0.00 42 1010.3
20260503230657 25 45 8.0 12.9 0.00 0.00 0.00 40 1010.3
20260503230416 25 54 8.0 12.9 0.00 0.00 0.00 39 1010.4
20260503225653 25 52 6.4 11.3 0.00 0.00 0.00 40 1010.5
20260503225153 25 37 6.4 11.3 0.00 0.00 0.00 39 1010.5
20260503225135 25 30 6.4 11.3 0.00 0.00 0.00 39 1010.6
20260503224412 25 39 8.0 12.9 0.00 0.00 0.00 40 1010.7
20260503224140 25 31 6.4 12.9 0.00 0.00 0.00 39 1010.7
20260503223412 25 60 6.4 11.3 0.00 0.00 0.00 40 1010.7
20260503222913 25 48 8.0 11.3 0.00 0.00 0.00 38 1010.8
20260503222154 25 32 8.0 14.5 0.00 0.00 0.00 38 1010.9
20260503221653 25 54 9.7 14.5 0.00 0.00 0.00 36 1011.0
20260503221152 25 54 9.7 14.5 0.00 0.00 0.00 36 1011.0
20260503220653 25 55 8.0 12.9 0.00 0.00 0.00 38 1011.0
20260503220154 25 54 6.4 11.3 0.00 0.00 0.00 37 1011.2
20260503215655 25 45 6.4 9.7 0.00 0.00 0.00 36 1011.3
20260503215154 25 53 4.8 9.7 0.00 0.00 0.00 37 1011.3
20260503214652 25 55 4.8 8.0 0.00 0.00 0.00 37 1011.3
20260503214153 25 34 6.4 14.5 0.00 0.00 0.00 41 1011.4
20260503214134 25 54 6.4 14.5 0.00 0.00 0.00 40 1011.4
20260503213412 24 62 3.2 11.3 0.00 0.00 0.00 41 1011.5
20260503212652 23 62 1.6 8.0 0.00 0.00 0.00 47 1011.6
20260503212157 24 100 0.0 4.8 0.00 0.00 0.00 47 1011.7
20260503212153 23 86 1.6 4.8 0.00 0.00 0.00 48 1011.7
20260503211411 25 106 0.0 3.2 0.00 0.00 0.00 46 1011.7
20260503210653 25 101 0.0 3.2 0.00 0.00 0.00 48 1011.8
20260503210152 24 96 0.0 3.2 0.00 0.00 0.00 50 1011.8
20260503205653 24 215 0.0 3.2 0.00 0.00 0.00 46 1011.9
20260503205152 23 92 0.0 3.2 0.00 0.00 0.00 46 1012.0
20260503204652 23 187 0.0 3.2 0.00 0.00 0.00 48 1012.0
20260503204153 23 108 0.0 3.2 0.00 0.00 0.00 48 1012.1
20260503203653 23 141 0.0 1.6 0.00 0.00 0.00 45 1012.2
20260503203151 23 143 0.0 1.6 0.00 0.00 0.00 52 1012.2
20260503202651 23 147 0.0 1.6 0.00 0.00 0.00 48 1012.3
20260503202151 23 145 0.0 3.2 0.00 0.00 0.00 49 1012.3
20260503201651 23 145 0.0 3.2 0.00 0.00 0.00 48 1012.4
20260503201150 23 98 0.0 1.6 0.00 0.00 0.00 52 1012.5
20260503200651 22 97 0.0 0.0 0.00 0.00 0.00 53 1012.5
20260503200151 22 97 0.0 0.0 0.00 0.00 0.00 53 1012.6
20260503195650 22 97 0.0 1.6 0.00 0.00 0.00 54 1012.7
20260503195151 22 98 0.0 1.6 0.00 0.00 0.00 52 1012.7
20260503194914 23 96 0.0 1.6 0.00 0.00 0.00 51 1012.8
20260503194151 23 97 0.0 0.0 0.00 0.00 0.00 54 1012.8
20260503193651 23 97 0.0 0.0 0.00 0.00 0.00 53 1012.9
20260503193150 22 99 0.0 0.0 0.00 0.00 0.00 54 1013.0
20260503192913 22 98 0.0 0.0 0.00 0.00 0.00 55 1013.1
20260503192151 21 97 0.0 0.0 0.00 0.00 0.00 56 1013.1
20260503191651 21 98 0.0 1.6 0.00 0.00 0.00 55 1013.2
20260503191148 21 99 0.0 1.6 0.00 0.00 0.00 54 1013.1
20260503190908 21 98 0.0 1.6 0.00 0.00 0.00 54 1013.2
20260503190149 21 97 0.0 1.6 0.00 0.00 0.00 55 1013.2
20260503185650 21 98 0.0 3.2 0.00 0.00 0.00 54 1013.2
20260503185149 21 98 0.0 3.2 0.00 0.00 0.00 56 1013.3
20260503184909 21 97 0.0 1.6 0.00 0.00 0.00 55 1013.3
20260503184149 21 97 0.0 1.6 0.00 0.00 0.00 57 1013.3
20260503183648 20 98 0.0 1.6 0.00 0.00 0.00 56 1013.4
20260503183149 20 97 0.0 1.6 0.00 0.00 0.00 57 1013.5
20260503182648 20 98 0.0 1.6 0.00 0.00 0.00 56 1013.5
20260503182148 20 97 0.0 1.6 0.00 0.00 0.00 56 1013.5
20260503181648 20 83 0.0 0.0 0.00 0.00 0.00 54 1013.6
20260503181148 19 84 0.0 1.6 0.00 0.00 0.00 56 1013.6
20260503180917 18 83 0.0 1.6 0.00 0.00 0.00 56 1013.6
20260503180148 18 84 0.0 1.6 0.00 0.00 0.00 57 1013.6
20260503175649 18 83 0.0 0.0 0.00 0.00 0.00 49 1013.7
20260503175408 18 83 0.0 0.0 0.00 0.00 0.00 46 1013.7
20260503174912 18 84 0.0 1.6 0.00 0.00 0.00 43 1013.8
20260503174146 17 83 0.0 1.6 0.00 0.00 0.00 42 1013.9
20260503173904 17 81 0.0 0.0 0.00 0.00 0.00 33 1013.8
20260503173146 17 82 0.0 0.0 0.00 0.00 0.00 27 1013.9
20260503172908 17 82 0.0 0.0 0.00 0.00 0.00 23 1013.9
20260503172146 17 82 0.0 0.0 0.00 0.00 0.00 26 1013.9
20260503171647 16 81 0.0 4.8 0.00 0.00 0.00 21 1014.0
20260503171147 16 82 1.6 4.8 0.00 0.00 0.00 28 1014.0
20260503170647 16 85 0.0 4.8 0.00 0.00 0.00 10 1014.1
20260503170147 16 33 0.0 3.2 0.00 0.00 0.00 29 1014.0
20260503160144 15 32 0.0 0.0 0.00 0.00 0.00 22 1014.4
20260503150643 14 31 0.0 0.0 0.00 0.00 0.00 5 1014.5
20260503150142 14 31 0.0 0.0 0.00 0.00 0.00 1 1014.5
20260503140140 13 30 0.0 0.0 0.00 0.00 0.00 100 1014.3
20260503131139 12 30 0.0 0.0 0.00 0.00 0.00 100 1013.9
20260503130640 12 32 0.0 0.0 0.00 0.00 0.00 100 1014.0
20260503130140 12 31 0.0 0.0 0.00 0.00 0.00 100 1014.0
20260503120136 13 31 0.0 0.0 0.00 0.00 0.00 100 1014.3
20260503110635 13 30 0.0 0.0 0.00 0.00 0.00 100 1014.4
20260503110135 13 30 0.0 0.0 0.00 0.00 0.00 100 1014.4
20260503100134 14 31 0.0 0.0 0.00 0.00 0.00 100 1014.5
20260503090131 15 30 0.0 0.0 0.00 0.00 0.00 100 1014.5
20260503081632 15 30 0.0 0.0 0.00 0.00 0.00 30 1014.5
20260503081132 15 30 0.0 0.0 0.00 0.00 0.00 33 1014.5
20260503080630 15 31 0.0 0.0 0.00 0.00 0.00 37 1014.5
20260503080130 16 29 0.0 0.0 0.00 0.00 0.00 38 1014.5
20260503072850 16 31 0.0 0.0 0.00 0.00 0.00 50 1014.3
20260503072356 16 31 0.0 0.0 0.00 0.00 0.00 45 1014.3
20260503071848 16 30 0.0 0.0 0.00 0.00 0.00 50 1014.2
20260503071129 16 29 0.0 0.0 0.00 0.00 0.00 51 1014.2
20260503070629 17 30 0.0 0.0 0.00 0.00 0.00 49 1014.2
20260503070130 17 30 0.0 0.0 0.00 0.00 0.00 50 1014.3
20260503054349 19 30 0.0 0.0 0.00 0.00 0.00 51 1013.6
20260503053628 18 31 0.0 0.0 0.00 0.00 0.00 51 1013.5
20260503053128 18 30 0.0 0.0 0.00 0.00 0.00 51 1013.5
20260503052628 18 30 0.0 0.0 0.00 0.00 0.00 53 1013.6
20260503052127 19 31 0.0 0.0 0.00 0.00 0.00 53 1013.6
20260503051847 19 30 0.0 1.6 0.00 0.00 0.00 53 1013.6
20260503051128 19 30 0.0 1.6 0.00 0.00 0.00 52 1013.6
20260503050628 19 30 0.0 0.0 0.00 0.00 0.00 53 1013.6
20260503050345 19 30 0.0 0.0 0.00 0.00 0.00 53 1013.5
20260503045627 19 30 0.0 0.0 0.00 0.00 0.00 53 1013.5
20260503045344 19 30 0.0 0.0 0.00 0.00 0.00 52 1013.4
20260503044625 19 30 0.0 0.0 0.00 0.00 0.00 53 1013.4
20260503044124 19 31 0.0 0.0 0.00 0.00 0.00 54 1013.4
20260503043849 20 31 0.0 0.0 0.00 0.00 0.00 53 1013.3
20260503043122 20 30 0.0 0.0 0.00 0.00 0.00 53 1013.3
20260503042622 20 30 0.0 0.0 0.00 0.00 0.00 53 1013.2
20260503042123 20 31 0.0 0.0 0.00 0.00 0.00 52 1013.2
20260503041622 20 31 0.0 1.6 0.00 0.00 0.00 52 1013.2
20260503041122 20 31 0.0 1.6 0.00 0.00 0.00 52 1013.1
20260503040622 20 30 0.0 0.0 0.00 0.00 0.00 48 1013.0
20260503040122 21 30 0.0 0.0 0.00 0.00 0.00 48 1012.9
20260503035846 21 30 0.0 0.0 0.00 0.00 0.00 47 1012.8
20260503035122 21 31 0.0 0.0 0.00 0.00 0.00 48 1012.8
20260503034622 21 31 0.0 0.0 0.00 0.00 0.00 47 1012.7
20260503034346 21 31 0.0 3.2 0.00 0.00 0.00 49 1012.7
20260503033622 22 30 0.0 4.8 0.00 0.00 0.00 47 1012.6
20260503033120 22 31 0.0 4.8 0.00 0.00 0.00 48 1012.5
20260503032620 22 31 0.0 4.8 0.00 0.00 0.00 47 1012.5
20260503032121 22 31 1.6 4.8 0.00 0.00 0.00 44 1012.5
20260503031620 23 31 3.2 6.4 0.00 0.00 0.00 43 1012.4
20260503031341 23 24 3.2 6.4 0.00 0.00 0.00 43 1012.3
20260503030622 23 29 4.8 8.0 0.00 0.00 0.00 43 1012.2
20260503030121 23 26 4.8 8.0 0.00 0.00 0.00 43 1012.3
20260503025618 23 23 4.8 6.4 0.00 0.00 0.00 44 1012.2
20260503025118 23 22 4.8 8.0 0.00 0.00 0.00 44 1012.1
20260503024845 23 26 6.4 8.0 0.00 0.00 0.00 46 1012.1
20260503024118 23 30 6.4 11.3 0.00 0.00 0.00 46 1012.1
20260503023618 23 27 8.0 11.3 0.00 0.00 0.00 44 1012.1
20260503023119 23 29 8.0 11.3 0.00 0.00 0.00 45 1012.1
20260503022618 23 31 6.4 11.3 0.00 0.00 0.00 45 1012.0
20260503022118 23 34 6.4 11.3 0.00 0.00 0.00 45 1012.1
20260503021618 23 33 8.0 11.3 0.00 0.00 0.00 45 1012.1
20260503021118 23 36 6.4 11.3 0.00 0.00 0.00 43 1012.1
20260503020618 23 35 6.4 12.9 0.00 0.00 0.00 44 1012.1
20260503020118 23 33 6.4 12.9 0.00 0.00 0.00 43 1012.1
20260503015616 23 36 6.4 9.7 0.00 0.00 0.00 44 1012.2
20260503015117 23 38 6.4 8.0 0.00 0.00 0.00 44 1012.2
20260503014617 23 41 6.4 9.7 0.00 0.00 0.00 44 1012.2
20260503014117 24 35 6.4 9.7 0.00 0.00 0.00 43 1012.2
20260503013617 24 48 6.4 9.7 0.00 0.00 0.00 45 1012.3
20260503013341 24 38 4.8 9.7 0.00 0.00 0.00 42 1012.3
20260503012617 24 33 6.4 11.3 0.00 0.00 0.00 42 1012.3
20260503012117 24 35 6.4 11.3 0.00 0.00 0.00 43 1012.3
20260503011618 24 33 6.4 9.7 0.00 0.00 0.00 43 1012.3
20260503011556 25 39 6.4 12.9 0.00 0.00 0.00 42 1012.3
20260503010617 25 41 6.4 12.9 0.00 0.00 0.00 41 1012.3
20260503010117 25 39 6.4 11.3 0.00 0.00 0.00 43 1012.3
20260503005618 25 39 6.4 11.3 0.00 0.00 0.00 42 1012.3
20260503005118 24 48 6.4 11.3 0.00 0.00 0.00 43 1012.4
20260503004613 24 37 6.4 12.9 0.00 0.00 0.00 44 1012.4
20260503004114 24 44 6.4 12.9 0.00 0.00 0.00 44 1012.4
20260503003615 24 27 6.4 9.7 0.00 0.00 0.00 43 1012.4
20260503003339 24 45 6.4 12.9 0.00 0.00 0.00 45 1012.5